Погода в Жепине

Польша     52°20′49″N   14°49′28″E
В апреле 2022 года жителям России запретили посещать сайт meteo.paraplan.net по решению Генеральной прокуратуры. Аудитория сайта уменьшилась в 10 раз. Владельцы сайта не видят смысла в поддержке погодного сервера в таких условиях. Сайт будет закрыт в октябре.
темп.,
°C
ветер,
м/с
пор.,
м/с
влажн.,
%
обл.,
%
осадки,
мм/ч
давл.,
гПа
погр.,
м
30 сентября, пт
пт3023:00+7ююв117855 0.0 100810
02:00+7ююв118078 0.0 100911
05:00+7вюв117987 0.0 100910
08:00+7юв117849 0.0 101117
11:00+14ююв22555 0.0 1012519
14:00+17ююз23466 0.0 10111658
17:00+16ююз2449100 0.0 1011396
20:00+13ююз2260100 0.0 101222
1 октября, сб
сб123:00+10ююз237184 0.0 101249
02:00+12ю256912 0.0 1012135
05:00+8ююз378674 0.0 1011143
08:00+9ююз31177100 0.0 1011301
11:00+14ююз51162100 0.0 1010787
14:00+14юз61262100 0.2 10081783
17:00+10юз51192100 2.3 1008829
20:00+11зюз51289100 2.9 1008699
2 октября, вс
вс223:00+11юз51389100 0.1 1009630
02:00+11з61289100 0.2 1010799
05:00+11з51187100 0.0 1012794
08:00+10зюз5139099 0.1 1014716
11:00+14з7127476 0.1 10151013
14:00+16з7116324 0.8 10151526
17:00+14зсз6117379 1.1 10161258
20:00+12з4128258 1.3 1017568
3 октября, пн
пн323:00+11з412915 0.0 1018474
02:00+9з310959 0.0 1019340
05:00+8з39976 0.0 1019281
08:00+9з399619 0.0 1020307
11:00+14зсз5874100 0.0 1020829
14:00+15зсз6861100 0.2 10191348
17:00+14зсз5963100 0.0 1019935
20:00+13з41063100 0.0 1019525
4 октября, вт
вт423:00+13з4117128 0.1 1019626
02:00+10з41191100 0.1 1019380
05:00+9з3996100 0.0 1019349
08:00+9з3895100 0.0 1020316
11:00+14зсз467292 0.0 1020655
14:00+16зсз4560100 0.0 10191000
17:00+16зсз245866 0.0 1018910
20:00+12ююз117410 0.0 101910